Regional Weather Roundup
Issued by NWS

Home | Current Version | Previous Version | Graphics & Text | Print | Product List | Glossary On
Versions: 1 2 3 4 5 6 7 8 9 10 11 12 13 14 15 16 17 18 19 20 21 22 23 24 25 26 27 28 29 30 31 32 33 34 35 36 37 38 39 40 41 42 43 44 45 46 47 48 49 50
000
ASUS43 KDMX 060808
RWRIA

WEATHER ROUNDUP FOR IOWA
NATIONAL WEATHER SERVICE DES MOINES IA
300 AM CDT FRI MAY 06 2016

NOTE: "FAIR" INDICATES FEW OR NO CLOUDS BELOW 12,000 FEET WITH NO
SIGNIFICANT WEATHER AND/OR OBSTRUCTIONS TO VISIBILITY.

* - THESE STATIONS ARE NOT NWS STATIONS...THUS NOT UNDER NWS
QUALITY CONTROL.  THEY ALSO DO NOT REPORT WEATHER SUCH
AS PRECIPITATION OR FOG.

IAZ001>003-012>014-020>022-031>034-043>046-060900-
   NORTHWEST IOWA

CITY           SKY/WX    TMP DP  RH WIND       PRES   REMARKS
CARROLL *      MOCLDY    57  41  54 SW13      29.98S
CHEROKEE *     CLEAR     54  45  71 CALM      29.96F
DENISON *      CLEAR     57  41  54 CALM      29.97F
LE MARS *      CLEAR     52  45  76 S5        29.96F
ORANGE CITY *  CLEAR     55  45  67 S8        29.95F
SHELDON *      CLEAR     55  43  62 S8        29.94S
SIOUX CITY     CLEAR     50  43  77 SE8       29.96S
SPENCER        CLEAR     55  41  59 SW9       29.96S
STORM LAKE *   CLEAR     57  41  54 SW10      29.98S
$$

IAZ055>058-069>071-079>083-090>094-060900-
   SOUTHWEST IOWA

CITY           SKY/WX    TMP DP  RH WIND       PRES   REMARKS
ATLANTIC *     CLEAR     50  43  76 SW3       30.00F
AUDUBON *      CLEAR     50  43  76 CALM      30.01S
CLARINDA *       N/A     48  46  93 MISG      30.04S
COUNCIL BLFS * CLEAR     59  43  55 SW10      30.00F
CRESTON *      CLEAR     54  41  62 SW6       30.03S
HARLAN  *      CLEAR     54  43  66 S6        30.03F
LAMONI         PTCLDY    53  40  61 S8        30.02F
RED OAK *      CLEAR     48  45  87 CALM      30.02S
SHENANDOAH *   CLEAR     55  43  62 S3        30.02F
$$

IAZ047>049-059>061-072>074-084-060900-
   CENTRAL IOWA

CITY           SKY/WX    TMP DP  RH WIND       PRES   REMARKS
AMES           CLEAR     50  42  74 SW8       29.97F
ANKENY *       CLEAR     48  43  81 CALM      29.98F
BOONE *        CLEAR     55  41  58 SW8       29.96F
CHARITON *     PTCLDY    54  37  54 SW6       30.01S
DES MOINES     PTCLDY    53  41  63 SW6       29.99F
GRINNELL*      CLEAR     52  37  58 SW8       29.99F
KNOXVILLE *    CLEAR     54  37  54 SW9       29.98F
MARSHALLTOWN   CLEAR     50  39  66 SW8       29.96F
NEWTON *       CLEAR     54  37  54 SW8       29.98F
PELLA *        CLEAR     54  37  54 SW6       30.01S
PERRY *          N/A     52  43  71 SW6       29.98F
$$

IAZ004>006-015-016-023>025-035-036-060900-
   NORTH CENTRAL IOWA

CITY           SKY/WX    TMP DP  RH WIND       PRES   REMARKS
ALGONA *       CLEAR     57  41  54 SW12      29.95F
CLARION *      CLEAR     50  39  66 S7        29.96S
ESTHERVILLE    CLEAR     58  41  53 SW15      29.94S
FORT DODGE *   CLEAR     50  39  66 CALM      29.97S
MASON CITY     CLEAR     58  42  55 W9        29.95F
FOREST CITY *  CLEAR     46  41  81 SW3       29.94F
WEBSTER CITY * CLEAR     50  41  71 SW9       29.95S
IOWA FALLS *     N/A     57  41  54 SW10      29.97S
$$

IAZ007>011-017>019-026>030-037>042-050>054-066-060900-
   NORTHEAST IOWA

CITY           SKY/WX    TMP DP  RH WIND       PRES   REMARKS
CEDAR RAPIDS   CLEAR     49  39  68 SW7       29.96F
CHARLES CITY * CLEAR     54  37  54 SW7       29.94F
CLINTON *      CLEAR     49  40  71 SW3       29.98F
DECORAH *      PTCLDY    55  37  50 SW5       29.92F
DUBUQUE        PTCLDY    49  39  68 SW6       29.96F
MONTICELLO *   CLEAR     46  39  76 CALM      29.97S
OELWEIN *      CLEAR     48  39  71 S6        29.96F
WATERLOO       CLEAR     53  38  56 SW6       29.95F
$$

IAZ064-065-067-068-078-060900-
   EAST CENTRAL IOWA

CITY           SKY/WX    TMP DP  RH WIND       PRES   REMARKS
DAVENPORT      CLEAR     47  39  74 CALM      30.00F
IOWA CITY      CLEAR     46  39  76 CALM      30.00S
MT. PLEASANT * CLEAR     50  41  71 SW6       30.00S
MUSCATINE *    CLEAR     48  43  81 CALM      29.99S
QUAD CITIES    CLEAR     44  40  85 CALM      29.98F
$$

IAZ062-063-075>077-085>089-095>099-060900-
   SOUTHEAST IOWA

CITY           SKY/WX    TMP DP  RH WIND       PRES   REMARKS
BURLINGTON     CLEAR     48  39  71 CALM      30.00S
FAIRFIELD *    PTCLDY    50  37  62 SW5       30.00S
FORT MADISON * CLEAR     50  43  76 SW3       30.01S
KEOKUK *       CLEAR     48  43  81 SW6       30.01R
OSKALOOSA *      N/A     48  37  66 SW6       30.00F
OTTUMWA        CLEAR     51  37  58 SW6       30.00S
WASHINGTON *   CLEAR     50  39  66 SW7       30.00F
$$

ABBREVIATIONS USED IN REMARKS
   TC - TEMPERATURES IN CELSIUS
  WCI - WIND CHILL INDEX
   HX - HEAT INDEX
  VSB - VISIBILITY
$$





USA.gov is the U.S. government's official web portal to all federal, state and local government web resources and services.